CZ-6A DEB, 54497

Orbit data source: Space-Track

CZ-6A DEB, 54497 is space debris in SSO originally from a launch on Fri, 11 Nov 2022 UTC launched from the Taiyaun Space Center, China (TSC). Debris objects in space refer to the collection of defunct objects orbiting the Earth. Examples of debris include non-operational satellites, rocket bodies, and fragments generated from explosions, collisions, or faulty payload assembly.

Loading next visibility...
Identifier
54497, 2022-151HZ
Orbit
SSO
Country
Flag of CNCN / PRC
Related business
Manufacturer
SAST
Mission
Spacecraft
Bus & Motor
Unknown
Mass
Unknown
Launch date (UTC)
2022-11-11 (4 years ago)
Launch vehicle
Unknown
Launch site
Taiyaun Space Center, China (TSC)
Object type
Payload
Rocket body
Debris
Shape & HBR
Unknown shape, 0.1 m
Radar Cross Section
Medium (>0.1 m² and <1 m²)

Expand to show TLE details & history
Last TLE update: 2 days ago

TLE from 2 days ago
0 CZ-6A DEB
1 54497U 22151HZ  26170.97038217  .00000237  00000-0  15132-3 0  9990
2 54497  98.8373 172.2840 0047306 321.5481  38.2323 14.12286474184910
Epoch: 2026-06-19T23:17Z
TLE epoch observation values (Epoch: 2026-06-19T23:17:21.019Z)
Latitude
-0.00003°
Longitude
-85.24529°
Altitude
827.65 km
Speed
7.453 km/s
True Right ascension
11h 29m 08s
True Declination
0° 00' 00"
Sunlit
Object was in daylight at epoch
Visualization orbit readout
Latitude
Unknown
Longitude
Unknown
Altitude
Unknown
Speed
Unknown
Apparent Right ascension
Unknown
Apparent Declination
Unknown
Sunlit
N/A
Visualization observer readout
Local Sidereal Time
21:33:04
Azimuth
Unknown
Elevation
Unknown
Doppler factor
Unknown
Orbital elements
Apogee altitude
882.92 km
Perigee altitude
814.546 km
Semi-major axis
7,226.87 km
Eccentricity
0.00473
Inclination
98.8373°
RAAN
172.284°
Arg. of periapsis
321.5481°
True anomaly
38.56933°
Mean anomaly
38.2323°
Eccentric anomaly
38.40066°
Mean motion
3.53279 °/min
Orbital period
101.9 mins
BSTAR
0.00015132
Loading maneuver chart data...
Computing Atmospheric mass density...
Loading historical data...
Loading historical data...
Loading historical data...
Loading historical data...
Loading historical data...
Loading historical data...
Loading historical data...

Documentation

Showing up to 5 results
|